Tracking 28794 objects as of 19-Apr-2024
HD Live streaming from Space Station
objects crossing your sky now

METEOR 2-17 DEB

Track METEOR 2-17 DEB now!
10-day predictions


NORAD ID: 31398
Int'l Code: 1988-005T
Perigee: 894.5 km
Apogee: 926.5 km
Inclination: 82.5 °
Period: 103.1 minutes
Semi major axis: 7281 km
RCS: 0.0054 m2 (small)
Launch date: January 30, 1988
Source: Commonwealth of Independent States (former USSR) (CIS)
Launch site: PLESETSK MISSILE AND SPACE COMPLEX (PKMTR)

Note: This is SATELLITE DEBRIS
Your satellite tracking list
Your tracking list is empty




NASA's NSSDC Master Catalog

Two Line Element Set (TLE):
1 31398U 88005T   24104.00272521  .00002856  00000-0  20255-2 0  9992
2 31398  82.5442 201.4872 0021962  11.6884 348.4788 13.97245024547547
Source of the keplerian elements: AFSPC